GW0919 Weather Reports


time (UTC)temp
C
wind
direction
speed
KPH
gust
KPH
rain 1hr
cm
rain 24hr
cm
rain mn
cm
humidity
%
barometer
mb
20260507154540 19 48 3.2 8.0 0.00 0.00 0.00 50 1013.5
20260507153035 18 357 3.2 11.3 0.00 0.00 0.00 53 1013.6
20260507151535 19 89 4.8 12.9 0.00 0.00 0.00 51 1013.6
20260507150034 18 142 1.6 11.3 0.00 0.00 0.00 48 1013.7
20260507144537 18 51 1.6 8.0 0.00 0.00 0.00 51 1013.9
20260507143037 18 65 0.0 6.4 0.00 0.00 0.00 50 1014.0
20260507141537 18 25 3.2 9.7 0.00 0.00 0.00 54 1014.1
20260507140038 18 0 3.2 8.0 0.00 0.00 0.00 52 1014.3
20260507134539 18 347 3.2 9.7 0.00 0.00 0.00 54 1014.5
20260507133050 18 33 1.6 11.3 0.00 0.00 0.00 57 1014.6
20260507131545 18 60 1.6 9.7 0.00 0.00 0.00 59 1014.6
20260507130045 18 80 1.6 12.9 0.00 0.00 0.00 57 1014.7
20260507124534 17 237 0.0 6.4 0.00 0.00 0.00 59 1014.9
20260507123036 17 310 3.2 11.3 0.00 0.00 0.00 58 1015.0
20260507121535 17 143 3.2 11.3 0.00 0.00 0.00 56 1015.0
20260507120046 17 42 1.6 8.0 0.00 0.00 0.00 59 1015.1
20260507114601 17 78 1.6 6.4 0.00 0.00 0.00 58 1015.1
20260507113036 17 49 3.2 8.0 0.00 0.00 0.00 60 1014.9
20260507111536 16 0 1.6 8.0 0.00 0.00 0.00 63 1015.0
20260507110036 15 0 0.0 4.8 0.00 0.00 0.00 63 1015.0
20260507104537 16 0 1.6 8.0 0.00 0.00 0.00 64 1014.9
20260507103035 16 273 1.6 6.4 0.00 0.00 0.00 64 1015.0
20260507101542 16 358 3.2 11.3 0.00 0.00 0.00 61 1015.2
20260507100036 16 339 0.0 6.4 0.00 0.00 0.00 62 1015.2
20260507094537 16 0 1.6 4.8 0.00 0.08 0.00 62 1015.3
20260507093038 15 318 3.2 9.7 0.00 0.08 0.00 66 1015.4
20260507091542 15 30 1.6 6.4 0.00 0.08 0.00 67 1015.1
20260507090040 15 331 1.6 8.0 0.00 0.08 0.00 67 1015.0
20260507084539 15 353 1.6 6.4 0.00 0.08 0.00 69 1015.0
20260507083035 13 66 0.0 6.4 0.00 0.08 0.00 70 1014.9
20260507081538 13 0 1.6 4.8 0.00 0.08 0.00 77 1014.9
20260507080036 13 61 0.0 4.8 0.00 0.08 0.00 81 1014.9
20260507074538 12 0 1.6 4.8 0.00 0.08 0.00 84 1014.7
20260507073036 12 58 0.0 4.8 0.00 0.08 0.00 89 1014.8
20260507071535 11 6 0.0 3.2 0.00 0.08 0.00 90 1014.8
20260507070035 11 66 0.0 3.2 0.00 0.08 0.00 93 1014.8
20260507064534 10 1 0.0 1.6 0.00 0.08 0.00 96 1014.8
20260507063035 9 49 0.0 1.6 0.00 0.08 0.00 98 1014.8
20260507061537 8 0 0.0 1.6 0.00 0.08 0.00 98 1014.6
20260507060036 8 0 0.0 1.6 0.00 0.08 0.00 98 1014.5
20260507054538 8 0 0.0 0.0 0.00 0.08 0.00 98 1014.5
20260507053035 7 0 0.0 0.0 0.00 0.08 0.00 99 1014.2
20260507051537 7 0 0.0 0.0 0.00 0.08 0.00 98 1014.1
20260507050035 7 0 0.0 0.0 0.00 0.08 0.00 98 1013.9
20260507044536 7 0 0.0 1.6 0.00 0.08 0.00 98 1014.0
20260507043035 7 0 0.0 1.6 0.00 0.08 0.00 98 1013.9
20260507041536 7 0 0.0 0.0 0.00 0.08 0.00 98 1013.9
20260507040036 7 0 0.0 0.0 0.00 0.08 0.00 98 1013.9
20260507034538 7 0 0.0 0.0 0.00 0.08 0.00 98 1013.9
20260507033035 7 0 0.0 0.0 0.00 0.08 0.00 98 1013.8
20260507031537 7 0 0.0 0.0 0.00 0.08 0.00 98 1013.8
20260507030036 7 0 0.0 0.0 0.00 0.08 0.00 98 1013.8
20260507024535 7 0 0.0 0.0 0.00 0.08 0.00 98 1013.7
20260507023045 8 0 0.0 0.0 0.00 0.08 0.00 98 1013.6
20260507021535 8 0 0.0 0.0 0.00 0.08 0.00 98 1013.5
20260507020052 8 0 0.0 0.0 0.00 0.08 0.00 98 1013.5
20260507014541 8 0 0.0 0.0 0.00 0.08 0.00 98 1013.5
20260507013047 8 0 0.0 0.0 0.00 0.08 0.00 98 1013.5
20260507011536 8 0 0.0 0.0 0.00 0.08 0.00 98 1013.5
20260507010036 7 0 0.0 0.0 0.00 0.08 0.00 98 1013.5
20260507004542 8 0 0.0 0.0 0.00 0.08 0.00 97 1013.4
20260507003042 8 0 0.0 0.0 0.00 0.08 0.00 97 1013.5
20260507001543 8 0 0.0 0.0 0.00 0.08 0.00 97 1013.5
20260507000036 8 0 0.0 1.6 0.00 0.08 0.00 98 1013.5
20260506234538 8 0 0.0 0.0 0.00 0.08 0.00 98 1013.4
20260506233036 8 0 0.0 0.0 0.00 0.08 0.00 98 1013.4
20260506231536 8 0 0.0 0.0 0.00 0.08 0.00 98 1013.4
20260506230045 8 0 0.0 0.0 0.00 0.08 0.00 98 1013.3
20260506224535 8 0 0.0 1.6 0.00 0.08 0.00 98 1013.3
20260506223041 7 0 0.0 0.0 0.00 0.08 0.00 98 1013.3
20260506221534 7 0 0.0 0.0 0.00 0.08 0.00 97 1013.3
20260506220041 6 0 0.0 0.0 0.00 0.08 0.00 97 1013.1
20260506214541 6 0 0.0 0.0 0.00 0.08 0.08 96 1013.2
20260506213041 6 0 0.0 0.0 0.00 0.08 0.08 95 1013.1
20260506211535 6 0 0.0 0.0 0.00 0.08 0.08 95 1013.1
20260506210042 7 0 0.0 0.0 0.00 0.08 0.08 95 1013.0
20260506204538 7 0 0.0 0.0 0.00 0.08 0.08 95 1013.1
20260506203036 7 0 0.0 0.0 0.00 0.08 0.08 94 1012.9
20260506201536 8 0 0.0 0.0 0.00 0.08 0.08 93 1012.7
20260506200035 8 0 0.0 0.0 0.00 0.08 0.08 91 1012.5
20260506194536 9 0 0.0 0.0 0.00 0.08 0.08 91 1012.5
20260506193037 10 0 0.0 0.0 0.00 0.08 0.08 89 1012.3
20260506191539 10 0 0.0 0.0 0.00 0.08 0.08 86 1012.0
20260506190035 11 0 0.0 0.0 0.00 0.08 0.08 82 1011.9
20260506184546 12 0 0.0 1.6 0.00 0.08 0.08 81 1011.8
20260506183050 12 0 0.0 1.6 0.00 0.08 0.08 79 1011.6
20260506181600 12 22 0.0 4.8 0.00 0.08 0.08 79 1011.3
20260506180037 12 20 0.0 4.8 0.00 0.08 0.08 79 1011.2
20260506174535 12 0 1.6 8.0 0.00 0.23 0.08 77 1011.1
20260506173053 12 27 3.2 11.3 0.00 0.23 0.08 76 1011.0
20260506171532 13 257 3.2 11.3 0.00 0.23 0.08 78 1010.8
20260506170040 13 53 4.8 12.9 0.00 0.23 0.08 77 1010.7
20260506164538 13 315 3.2 11.3 0.00 0.23 0.08 76 1010.6
20260506163038 13 32 4.8 17.7 0.00 0.23 0.08 75 1010.6
20260506161535 13 49 4.8 14.5 0.00 0.23 0.08 77 1010.7
20260506160044 13 294 1.6 11.3 0.00 0.23 0.08 77 1010.7